COSMOS 1275 DEB, 42180

Orbit data source: Space-Track

COSMOS 1275 DEB, 42180 is space debris in LEO originally from a launch on Thu, 04 Jun 1981 UTC launched from the Plesetsk Missile And Space Complex (PKMTR). Debris objects in space refer to the collection of defunct objects orbiting the Earth. Examples of debris include non-operational satellites, rocket bodies, and fragments generated from explosions, collisions, or faulty payload assembly.

Loading next visibility...
COSMOS 1275 DEB details
Identifier
42180, 1981-053SU
Orbit
LEO
Last TLE update1 day ago
Origin
Flag of CISGUKOS (CIS)
ManufacturerUnknown
MissionSpacecraft
Bus & MotorUnknown
MassUnknown
Launch date (UTC)
1981-06-04 (44 years ago)
Launch vehicleUnknown
Launch site
Plesetsk Missile And Space Complex (PKMTR)
Object type
Payload
Rocket body
Debris
Shape & HBRUnknown
Radar Cross SectionSmall (<0.1 m²)

Expand to show TLE details & history

TLE from 1 day ago
0 COSMOS 1275 DEB
1 42180U 81053SU  24360.46685449  .00050692  00000-0  11199-1 0  9997
2 42180  82.8668  70.3960 0004128 290.8392  86.1098 14.56990394549277
Epoch: 2024-12-25T11:12Z
Definitive object data (Epoch: 2024-12-25T11:12:16.227Z)
Latitude16.84576°
Longitude170.02813°
Altitude705.092 km
Speed7.505 km/s
True Right ascension04h 50m 13s
True Declination16° 44' 60"
Sunlit
Object was in full shadow at TLE epoch
Visualization TLE readout
Latitude4.58043°
Longitude167.50009°
Altitude704.445 km
Speed7.504 km/s
Apparent Right ascension03h 08m 48s
Apparent Declination-18° 21' 55"
Sunlit
Object is in full shadow
Visualization observer readout
Local Sidereal Time12:52:49
Azimuth296.386° NW
Elevation-53.677°
Doppler factor1
Orbital elements
Apogee altitude702.87 km
Perigee altitude697.026 km
Semi-major axis7,078.085 km
Eccentricity0.0004128
Inclination82.8668°
RAAN70.396°
Arg. of periapsis290.8392°
True anomaly86.157°
Mean anomaly86.1098°
Eccentric anomaly86.1334°
Mean motion3.64476 °/min
BSTAR0.011199
Orbital period98.77 mins
Loading maneuver chart data...
Loading historical data...
Loading historical data...
Loading historical data...
Loading historical data...
Loading historical data...
Loading historical data...
Loading historical data...

COSMOS 1275 DEB Visibility forecast

Observer location: undefined°, undefined

Span
Click to sort rows by Start time (UTC) header in descending order
Start Az.
Max El. time (UTC)
Max El. Az.
Max El.
End time (UTC)
End Az.
6 mins2024-12-26 15:43:08.320Z27.398° NE2024-12-26 15:46:08.320Z67.907° E19.103°2024-12-26 15:49:08.320Z112.601° SE
7 mins2024-12-26 17:23:08.320Z327.464° NNW2024-12-26 17:26:08.320Z268.936° W31.881°2024-12-26 17:30:08.320Z204.125° SW
5 mins2024-12-27 04:29:08.320Z112.089° ESE2024-12-27 04:31:08.320Z80.326° E18.415°2024-12-27 04:34:08.320Z41.325° NE
7 mins2024-12-27 06:07:08.320Z223.364° SW2024-12-27 06:10:08.320Z284.83° WNW32.19°2024-12-27 06:14:08.320Z349.173° N
|